Tracking 29892 objects as of 21-Nov-2024
HD Live streaming from Space Station
objects crossing your sky now

SL-8 DEB

Track SL-8 DEB now!
10-day predictions


NORAD ID: 39695
Int'l Code: 1991-009DJ
Perigee: 1,496.5 km
Apogee: 1,713.5 km
Inclination: 74.1 °
Period: 118.2 minutes
Semi major axis: 7976 km
RCS: 0.0051 m2 (small)
Launch date: February 12, 1991
Source: Commonwealth of Independent States (former USSR) (CIS)
Launch site: PLESETSK MISSILE AND SPACE COMPLEX (PKMTR)

Note: This is SATELLITE DEBRIS
Your satellite tracking list
Your tracking list is empty




NASA's NSSDC Master Catalog

Two Line Element Set (TLE):
1 39695U 91009DJ  24322.12889490  .00000156  00000-0  16145-2 0  9996
2 39695  74.0594 271.9779 0136023  70.0870 291.4760 12.18777065221189
Source of the keplerian elements: AFSPC